| time (UTC) | temp F | wind direction | speed MPH | gust MPH | rain 1hr in | rain 24hr in | rain mn in | humidity % | barometer mb |
| 20260507050100 | 43 | 200 | 2.0 | 5.0 | 0.00 | 0.39 | 0.19 | 28 | 1008.0 |
| 20260507044600 | 43 | 175 | 1.0 | 3.0 | 0.00 | 0.39 | 0.19 | 27 | 1007.8 |
| 20260507043058 | 43 | 227 | 0.0 | 0.0 | 0.00 | 0.39 | 0.19 | 27 | 1007.5 |
| 20260507041552 | 43 | 227 | 0.0 | 2.0 | 0.00 | 0.39 | 0.19 | 29 | 1007.7 |
| 20260507040052 | 43 | 227 | 0.0 | 1.0 | 0.00 | 0.39 | 0.19 | 29 | 1007.6 |
| 20260507034558 | 43 | 227 | 0.0 | 3.0 | 0.00 | 0.39 | 0.19 | 30 | 1007.6 |
| 20260507033048 | 43 | 215 | 0.0 | 2.0 | 0.00 | 0.39 | 0.19 | 31 | 1007.9 |
| 20260507031547 | 43 | 109 | 0.0 | 2.0 | 0.00 | 0.39 | 0.19 | 32 | 1007.8 |
| 20260507030047 | 43 | 132 | 0.0 | 2.0 | 0.00 | 0.39 | 0.19 | 33 | 1007.7 |
| 20260507024555 | 43 | 239 | 0.0 | 4.0 | 0.00 | 0.39 | 0.19 | 36 | 1007.7 |
| 20260507023040 | 44 | 135 | 0.0 | 1.0 | 0.00 | 0.39 | 0.19 | 36 | 1007.9 |
| 20260507021546 | 44 | 181 | 1.0 | 4.0 | 0.00 | 0.39 | 0.19 | 38 | 1008.0 |
| 20260507020039 | 44 | 267 | 0.0 | 3.0 | 0.00 | 0.39 | 0.19 | 40 | 1008.1 |
| 20260507014542 | 44 | 273 | 0.0 | 5.0 | 0.00 | 0.39 | 0.19 | 40 | 1007.9 |
| 20260507013034 | 44 | 309 | 1.0 | 7.0 | 0.00 | 0.39 | 0.19 | 38 | 1008.0 |
| 20260507011540 | 44 | 306 | 1.0 | 3.0 | 0.01 | 0.39 | 0.19 | 36 | 1008.1 |
| 20260507010031 | 44 | 233 | 1.0 | 3.0 | 0.01 | 0.39 | 0.19 | 36 | 1007.9 |
| 20260507004528 | 44 | 221 | 2.0 | 5.0 | 0.01 | 0.39 | 0.19 | 36 | 1007.3 |
| 20260507003023 | 44 | 317 | 2.0 | 7.0 | 0.01 | 0.39 | 0.19 | 37 | 1007.2 |
| 20260507001526 | 45 | 303 | 3.0 | 8.0 | 0.00 | 0.38 | 0.18 | 37 | 1007.1 |
| 20260507000023 | 45 | 349 | 3.0 | 8.0 | 0.00 | 0.38 | 0.18 | 35 | 1007.0 |
| 20260506234519 | 45 | 281 | 2.0 | 8.0 | 0.00 | 0.38 | 0.18 | 35 | 1006.8 |
| 20260506233057 | 45 | 296 | 3.0 | 13.0 | 0.00 | 0.38 | 0.18 | 34 | 1006.5 |
| 20260506231544 | 45 | 74 | 1.0 | 6.0 | 0.00 | 0.38 | 0.18 | 31 | 1006.4 |
| 20260506230044 | 46 | 180 | 2.0 | 5.0 | 0.00 | 0.38 | 0.18 | 31 | 1006.2 |
| 20260506224538 | 46 | 300 | 2.0 | 6.0 | 0.01 | 0.38 | 0.18 | 31 | 1005.8 |
| 20260506223136 | 46 | 5 | 2.0 | 9.0 | 0.01 | 0.38 | 0.18 | 29 | 1005.9 |
| 20260506221535 | 46 | 279 | 1.0 | 4.0 | 0.01 | 0.38 | 0.18 | 29 | 1005.7 |
| 20260506220032 | 46 | 286 | 3.0 | 6.0 | 0.01 | 0.38 | 0.18 | 29 | 1005.6 |
| 20260506214529 | 46 | 334 | 1.0 | 6.0 | 0.01 | 0.37 | 0.17 | 28 | 1005.2 |
| 20260506213024 | 46 | 296 | 1.0 | 8.0 | 0.01 | 0.37 | 0.17 | 27 | 1004.9 |
| 20260506211524 | 46 | 279 | 0.0 | 6.0 | 0.01 | 0.37 | 0.17 | 25 | 1004.5 |
| 20260506210024 | 46 | 38 | 3.0 | 6.0 | 0.01 | 0.37 | 0.17 | 24 | 1004.1 |
| 20260506210021 | 46 | 342 | 3.0 | 6.0 | 0.01 | 0.37 | 0.17 | 24 | 1004.1 |
| 20260506204523 | 46 | 30 | 5.0 | 12.0 | 0.01 | 0.36 | 0.16 | 24 | 1004.3 |
| 20260506203014 | 47 | 291 | 6.0 | 11.0 | 0.01 | 0.37 | 0.16 | 22 | 1004.0 |
| 20260506201512 | 48 | 5 | 4.0 | 8.0 | 0.02 | 0.37 | 0.16 | 19 | 1003.7 |
| 20260506200011 | 47 | 334 | 1.0 | 5.0 | 0.02 | 0.37 | 0.16 | 20 | 1003.5 |
| 20260506194504 | 48 | 16 | 3.0 | 6.0 | 0.01 | 0.36 | 0.15 | 21 | 1003.3 |
| 20260506193100 | 48 | 13 | 3.0 | 6.0 | 0.01 | 0.36 | 0.15 | 22 | 1003.3 |
| 20260506191559 | 48 | 34 | 2.0 | 6.0 | 0.02 | 0.35 | 0.14 | 23 | 1003.2 |
| 20260506190055 | 48 | 351 | 2.0 | 8.0 | 0.02 | 0.35 | 0.14 | 25 | 1003.0 |
| 20260506184524 | 49 | 9 | 4.0 | 9.0 | 0.02 | 0.35 | 0.14 | 29 | 1002.7 |
| 20260506183018 | 51 | 344 | 5.0 | 11.0 | 0.02 | 0.35 | 0.14 | 35 | 1002.5 |
| 20260506181508 | 56 | 290 | 6.0 | 9.0 | 0.00 | 0.33 | 0.12 | 27 | 1002.1 |
| 20260506180007 | 58 | 192 | 1.0 | 7.0 | 0.02 | 0.33 | 0.12 | 14 | 1001.9 |
| 20260506174505 | 58 | 228 | 1.0 | 8.0 | 0.02 | 0.33 | 0.12 | 14 | 1001.9 |
| 20260506173002 | 58 | 161 | 4.0 | 9.0 | 0.04 | 0.33 | 0.12 | 14 | 1002.1 |
| 20260506171559 | 58 | 188 | 3.0 | 8.0 | 0.05 | 0.33 | 0.12 | 14 | 1002.1 |
| 20260506170054 | 57 | 169 | 3.0 | 7.0 | 0.06 | 0.31 | 0.10 | 14 | 1002.1 |
| 20260506164551 | 57 | 180 | 5.0 | 9.0 | 0.08 | 0.31 | 0.10 | 15 | 1002.3 |
| 20260506163053 | 57 | 221 | 2.0 | 8.0 | 0.08 | 0.28 | 0.08 | 13 | 1002.3 |
| 20260506161546 | 57 | 218 | 3.0 | 9.0 | 0.07 | 0.28 | 0.07 | 12 | 1002.5 |
| 20260506160042 | 57 | 210 | 1.0 | 4.0 | 0.04 | 0.25 | 0.04 | 11 | 1002.7 |
| 20260506154540 | 57 | 171 | 4.0 | 6.0 | 0.02 | 0.23 | 0.02 | 11 | 1002.6 |
| 20260506153042 | 56 | 191 | 3.0 | 6.0 | 0.02 | 0.21 | 0.21 | 12 | 1002.6 |
| 20260506151534 | 56 | 201 | 3.0 | 8.0 | 0.04 | 0.21 | 0.21 | 12 | 1002.3 |
| 20260506150040 | 55 | 180 | 1.0 | 7.0 | 0.06 | 0.21 | 0.21 | 13 | 1002.5 |
| 20260506144550 | 55 | 174 | 1.0 | 4.0 | 0.08 | 0.21 | 0.21 | 13 | 1002.5 |
| 20260506143034 | 55 | 167 | 3.0 | 6.0 | 0.09 | 0.19 | 0.19 | 14 | 1002.8 |
| 20260506141529 | 55 | 181 | 2.0 | 7.0 | 0.08 | 0.17 | 0.17 | 14 | 1003.0 |
| 20260506140040 | 54 | 183 | 4.0 | 8.0 | 0.06 | 0.15 | 0.15 | 13 | 1003.4 |
| 20260506134532 | 54 | 172 | 6.0 | 10.0 | 0.03 | 0.12 | 0.12 | 12 | 1003.7 |
| 20260506133025 | 53 | 135 | 3.0 | 6.0 | 0.02 | 0.10 | 0.10 | 13 | 1003.6 |
| 20260506131532 | 52 | 144 | 0.0 | 0.0 | 0.01 | 0.09 | 0.09 | 16 | 1003.3 |
| 20260506130022 | 51 | 140 | 0.0 | 0.0 | 0.01 | 0.09 | 0.09 | 17 | 1003.3 |
| 20260506124520 | 51 | 144 | 0.0 | 0.0 | 0.02 | 0.09 | 0.09 | 17 | 1003.2 |
| 20260506123028 | 50 | 132 | 0.0 | 0.0 | 0.01 | 0.08 | 0.08 | 20 | 1003.4 |
| 20260506121516 | 50 | 132 | 0.0 | 0.0 | 0.03 | 0.08 | 0.08 | 20 | 1003.6 |
| 20260506120024 | 49 | 25 | 0.0 | 0.0 | 0.04 | 0.08 | 0.08 | 23 | 1003.4 |
| 20260506114519 | 49 | 78 | 0.0 | 0.0 | 0.03 | 0.07 | 0.07 | 23 | 1003.9 |
| 20260506113014 | 49 | 5 | 0.0 | 0.0 | 0.04 | 0.07 | 0.07 | 25 | 1004.2 |
| 20260506111511 | 49 | 5 | 0.0 | 0.0 | 0.02 | 0.05 | 0.05 | 26 | 1004.1 |
| 20260506110010 | 49 | 341 | 0.0 | 3.0 | 0.02 | 0.04 | 0.04 | 28 | 1004.1 |
| 20260506104508 | 49 | 14 | 0.0 | 4.0 | 0.02 | 0.04 | 0.04 | 29 | 1003.9 |
| 20260506103008 | 49 | 318 | 0.0 | 4.0 | 0.02 | 0.03 | 0.03 | 30 | 1003.7 |
| 20260506101505 | 49 | 349 | 1.0 | 4.0 | 0.02 | 0.03 | 0.03 | 33 | 1003.7 |
| 20260506100015 | 49 | 286 | 0.0 | 0.0 | 0.01 | 0.02 | 0.02 | 35 | 1003.8 |
| 20260506094502 | 49 | 19 | 0.0 | 0.0 | 0.01 | 0.02 | 0.02 | 37 | 1003.8 |
| 20260506093001 | 49 | 66 | 0.0 | 2.0 | 0.00 | 0.08 | 0.01 | 38 | 1003.7 |
| 20260506091557 | 49 | 52 | 0.0 | 2.0 | 0.00 | 0.08 | 0.01 | 39 | 1003.5 |
| 20260506090057 | 49 | 14 | 0.0 | 3.0 | 0.00 | 0.08 | 0.01 | 41 | 1003.5 |
| 20260506084559 | 49 | 333 | 1.0 | 4.0 | 0.00 | 0.08 | 0.01 | 42 | 1003.5 |
| 20260506083058 | 49 | 346 | 1.0 | 4.0 | 0.00 | 0.08 | 0.01 | 44 | 1003.6 |
| 20260506081607 | 49 | 34 | 3.0 | 8.0 | 0.00 | 0.08 | 0.01 | 45 | 1004.0 |
| 20260506073043 | 50 | 13 | 3.0 | 6.0 | 0.00 | 0.08 | 0.01 | 54 | 1004.3 |
| 20260506071543 | 50 | 346 | 2.0 | 6.0 | 0.00 | 0.08 | 0.01 | 56 | 1004.4 |
| 20260506061543 | 51 | 346 | 0.0 | 0.0 | 0.00 | 0.08 | 0.01 | 60 | 1004.8 |